Weather History for KAVL - November, 2014

Change the Weather History Date:

Sunday, November 16, 2014

  Actual Average Record
Temperature  
Mean Temperature 44 °F 47 °F  
Max Temperature 56 °F 59 °F 78 °F (1955)
Min Temperature 32 °F 36 °F 15 °F (1969)
Degree Days  
Heating Degree Days 21 18  
Month to date heating degree days 331 250  
Since 1 July heating degree days 577 585  
Cooling Degree Days 0 0  
Month to date cooling degree days 0 0  
Year to date cooling degree days 919 862  
Moisture  
Dew Point 26 °F    
Average Humidity 57    
Maximum Humidity 82    
Minimum Humidity 32    
Precipitation  
Precipitation T in 0.13 in 1.01 in (2002)
Month to date precipitation 0.15 1.76  
Year to date precipitation 40.83 40.09  
Snow  
Snow 0.00 in 0.00 in 0.60 in (1889)
Month to date snowfall 3.2 0.0  
Since 1 July snowfall 3.2 0.0  
Since 1 September snowfall 3.2 0.0  
Snow Depth 0.00 in    
Sea Level Pressure  
Sea Level Pressure 30.17 in    
Wind  
Wind Speed 7 mph (SSE)    
Max Wind Speed 13 mph    
Max Gust Speed 19 mph    
Visibility 10 miles    
Events Rain    
T = Trace of Precipitation, MM = Missing Value Source: NWS Daily Summary

Daily Weather History Graph

Daily Weather History Graph

Search for Another Location

Airport or City:

Trip Planner

Search our weather history database for the weather conditions in past years. The results will help you decide how hot, cold, wet, or windy it might be!

Date:

Astronomy

Nov. 16, 2014 Rise Set
Actual Time 7:06 AM EST 5:23 PM EST
Civil Twilight 6:39 AM EST 5:50 PM EST
Nautical Twilight 6:08 AM EST 6:20 PM EST
Astronomical Twilight 5:38 AM EST 6:51 PM EST
Moon 1:24 AM EST (11/16) 2:04 PM EST (11/16)
Length of Visible Light 11h 10m
Length of Day
10h 16m
Waning Crescent, 31% of the Moon is Illuminated
Nov 16
Waning Crescent
Nov 22
New
Nov 29
First Quarter
Dec 6
Full
Dec 14
Last Quarter

Hourly Weather History & Observations

Time (EST) Temp. Windchill Dew Point Humidity Pressure Visibility Wind Dir Wind Speed Gust Speed Precip Events Conditions
12:54 AM 32.0 °F 28.7 °F 17.1 °F 54% 30.31 in 10.0 mi ESE 3.5 mph - N/A   Overcast
1:54 AM 33.1 °F 28.7 °F 17.1 °F 52% 30.30 in 10.0 mi SSE 4.6 mph - N/A   Overcast
2:54 AM 35.1 °F 32.2 °F 16.0 °F 46% 30.29 in 10.0 mi SSE 3.5 mph - N/A   Overcast
3:54 AM 35.1 °F 31.0 °F 17.1 °F 48% 30.28 in 10.0 mi SSE 4.6 mph - N/A   Overcast
4:54 AM 35.1 °F - 16.0 °F 46% 30.28 in 10.0 mi Calm Calm - N/A   Overcast
5:54 AM 35.1 °F 31.0 °F 17.1 °F 48% 30.27 in 10.0 mi SSE 4.6 mph - N/A   Overcast
6:54 AM 33.1 °F 30.0 °F 17.1 °F 52% 30.28 in 10.0 mi South 3.5 mph - N/A   Clear
7:54 AM 35.1 °F - 17.1 °F 48% 30.29 in 10.0 mi Calm Calm - N/A   Scattered Clouds
8:54 AM 37.0 °F 33.3 °F 17.1 °F 44% 30.28 in 10.0 mi SE 4.6 mph - N/A   Clear
9:54 AM 41.0 °F 37.1 °F 18.0 °F 40% 30.25 in 10.0 mi SE 5.8 mph - N/A   Clear
10:54 AM 45.0 °F 40.6 °F 21.0 °F 39% 30.23 in 10.0 mi SSE 8.1 mph - N/A   Clear
11:54 AM 48.9 °F - 21.9 °F 35% 30.19 in 10.0 mi SE 6.9 mph - N/A   Partly Cloudy
12:54 PM 53.1 °F - 25.0 °F 34% 30.13 in 10.0 mi SSE 8.1 mph - N/A   Clear
1:54 PM 54.0 °F - 28.0 °F 37% 30.11 in 10.0 mi Variable 6.9 mph - N/A   Partly Cloudy
2:54 PM 52.0 °F - 28.0 °F 40% 30.11 in 10.0 mi SSE 10.4 mph - N/A   Partly Cloudy
3:54 PM 51.1 °F - 28.9 °F 43% 30.11 in 10.0 mi SSE 10.4 mph - N/A   Clear
4:54 PM 50.0 °F - 30.0 °F 46% 30.11 in 10.0 mi SE 4.6 mph - N/A   Scattered Clouds
5:01 PM 50.0 °F - 30.0 °F 46% 30.10 in 10.0 mi SE 6.9 mph - N/A   Overcast
5:54 PM 48.9 °F - 32.0 °F 52% 30.09 in 10.0 mi SSE 8.1 mph - 0.00 in   Overcast
6:34 PM 48.0 °F - 33.1 °F 56% 30.08 in 10.0 mi SSE 10.4 mph - 0.00 in Rain Light Rain
6:54 PM 46.0 °F 41.0 °F 34.0 °F 63% 30.09 in 10.0 mi SSE 10.4 mph - 0.00 in Rain Light Rain
7:23 PM 45.0 °F 39.7 °F 36.0 °F 71% 30.07 in 10.0 mi SSE 10.4 mph - 0.00 in Rain Light Rain
7:54 PM 44.1 °F 38.1 °F 36.0 °F 73% 30.09 in 10.0 mi South 11.5 mph - 0.00 in Rain Light Rain
8:54 PM 42.1 °F 36.6 °F 36.0 °F 79% 30.08 in 10.0 mi South 9.2 mph - 0.00 in Rain Light Rain
9:54 PM 42.1 °F 36.1 °F 37.9 °F 85% 30.04 in 10.0 mi South 10.4 mph - 0.00 in Rain Light Rain
10:22 PM 43.0 °F 39.5 °F 37.0 °F 80% 30.04 in 10.0 mi South 5.8 mph - 0.00 in Rain Light Rain
10:54 PM 42.1 °F 36.6 °F 37.0 °F 82% 30.02 in 10.0 mi SSE 9.2 mph - 0.00 in   Overcast
11:54 PM 42.1 °F 36.1 °F 37.9 °F 85% 29.98 in 10.0 mi SSE 10.4 mph - 0.00 in   Overcast